GFSMA_250_rhum_021.txt.gz
RH
100 100 100 100 100 100 98 100 98 90 90 93 95 100 97 84 82 65 53 36 29 28 25 26 24 23 22 24 27 28 27 28 28 30 29 28 34 40 64 58 53 51 46
100 100 100 100 98 99 100 100 100 100 89 100 89 81 72 60 49 38 31 32 33 36 37 41 40 43 44 43 36 33 33 34 27 28 29 31 32 34 46 49 49 50 45
100 100 100 100 100 100 98 100 100 96 88 71 63 54 45 36 32 29 29 29 32 32 35 36 40 45 49 54 54 49 40 39 42 30 25 30 32 33 37 38 39 39 40
100 100 100 100 100 100 95 92 93 79 64 47 40 32 32 30 30 28 30 27 28 28 32 39 46 51 55 61 66 69 66 53 47 50 44 31 26 24 32 33 36 40 44
100 100 100 93 90 87 83 75 62 49 39 31 33 30 30 26 28 29 28 26 30 36 43 45 44 43 44 46 48 54 62 69 65 49 40 35 38 40 25 24 30 34 35
90 85 79 76 67 60 51 45 39 32 28 30 28 27 26 30 29 26 27 34 37 42 47 49 46 43 44 47 48 46 44 49 57 66 60 42 28 30 40 31 23 24 24
68 74 67 54 48 43 38 34 30 30 30 28 27 31 30 29 28 29 33 39 45 51 53 52 46 44 41 40 38 37 34 34 37 39 46 48 37 24 25 32 32 24 22
56 51 49 44 37 32 31 30 28 27 26 28 28 29 29 32 35 41 47 51 53 50 47 45 46 44 41 38 34 29 27 26 25 27 31 33 35 31 24 22 28 29 24
52 40 36 33 33 34 32 30 29 34 37 37 39 36 34 41 51 59 62 63 60 55 52 46 44 42 38 29 20 14 13 14 14 13 15 20 26 30 29 23 21 27 30
35 34 35 38 40 37 34 35 40 41 38 36 36 41 45 56 62 72 69 64 61 56 53 43 37 32 25 18 15 10 9 8 8 8 7 7 9 16 25 30 23 21 27
38 41 40 39 41 42 44 45 43 38 35 37 42 51 62 74 79 76 69 61 55 50 46 38 25 20 17 14 10 8 7 6 6 6 6 6 6 8 11 18 24 20 20
47 44 42 42 41 42 42 43 39 39 40 51 55 63 69 76 70 63 57 54 48 44 39 28 20 15 14 10 7 6 6 5 5 5 5 5 5 5 6 6 7 12 17
46 43 38 41 43 43 44 44 43 45 54 61 65 74 80 70 63 52 45 48 44 40 30 23 19 12 10 8 7 6 5 5 4 4 4 5 5 5 5 5 6 6 8
42 39 39 45 49 50 48 48 52 56 60 68 80 82 74 62 51 42 38 38 32 33 29 20 13 9 7 6 5 5 4 5 4 4 3 4 4 5 6 5 5 6 6
44 51 57 53 52 51 56 61 61 67 74 83 83 79 66 50 40 40 44 32 23 24 19 14 11 8 6 5 5 5 4 4 4 3 3 3 3 3 4 5 5 5 6
57 55 52 54 55 55 67 68 72 78 83 80 76 62 52 48 44 37 30 24 17 13 11 9 8 6 6 5 5 5 4 4 3 3 4 3 3 4 4 3 3 4 5
64 56 59 55 56 67 73 75 79 80 79 75 81 69 57 42 33 25 18 15 12 9 7 8 7 7 7 6 5 4 4 4 4 4 3 3 3 3 3 3 3 3 3
60 61 65 58 65 77 77 79 74 72 85 94 78 63 46 32 21 14 12 9 8 6 6 7 7 6 5 5 5 4 4 4 3 3 3 3 3 3 2 3 3 3 3
64 71 68 66 81 80 80 74 75 95 83 69 55 42 34 22 15 12 9 7 7 7 7 6 6 5 5 5 4 4 4 3 3 3 3 3 3 3 3 3 3 3 2
70 68 67 84 79 78 75 77 98 89 74 55 42 33 22 14 11 9 7 7 7 7 6 5 5 5 4 4 4 3 3 3 3 4 4 3 3 2 2 2 2 2 2
74 68 82 81 77 79 82 89 88 73 61 42 30 20 14 12 9 8 7 7 7 6 6 5 4 4 3 3 3 3 3 3 4 4 3 3 2 2 2 2 2 2 2
71 72 77 88 94 86 88 88 79 62 43 31 20 16 12 9 8 7 7 6 6 6 4 4 3 3 3 4 4 4 4 4 3 5 3 2 3 3 3 2 2 2 2
76 92 87 80 81 80 87 76 64 58 35 24 19 12 9 8 8 7 6 6 5 4 4 4 4 4 3 4 4 4 4 4 4 4 2 3 4 3 3 2 2 2 2
85 88 87 83 89 91 80 70 65 37 32 24 13 9 9 8 8 7 6 4 4 5 5 5 5 5 4 4 4 4 4 4 4 3 3 4 4 3 3 3 2 2 2
82 88 83 91 92 80 75 66 44 38 25 16 10 9 9 8 8 6 5 5 5 6 6 6 6 5 5 5 4 4 4 3 3 5 4 4 3 3 3 3 2 2 2
86 81 86 85 86 73 63 58 39 28 19 11 9 8 8 8 6 5 5 6 6 6 6 6 6 6 5 5 4 3 3 3 4 5 4 3 3 3 3 2 2 2 2

GFSMA_250_rhum_024.txt.gz
RH
100 100 100 100 100 100 100 100 91 76 88 98 83 98 96 90 90 74 66 52 40 39 32 34 34 32 33 31 29 32 32 31 33 37 43 42 38 37 31 30 28 27 40
100 100 100 100 100 100 100 99 100 100 95 88 93 90 81 63 54 43 38 32 30 31 30 29 30 31 29 30 33 36 39 41 42 38 37 39 43 39 38 32 30 27 24
100 100 100 100 100 100 92 100 98 94 82 82 78 71 58 50 39 31 28 28 26 29 27 28 27 29 32 36 46 52 53 53 49 46 44 45 50 52 49 37 32 32 30
100 100 100 100 100 98 99 100 89 80 70 60 48 39 34 31 29 28 28 28 26 26 26 27 29 29 31 36 44 54 62 67 68 63 56 51 46 40 51 58 48 30 30
100 100 97 96 98 99 93 77 65 53 45 38 33 31 30 30 29 28 29 28 30 31 30 29 28 31 36 38 42 46 53 58 60 60 60 60 55 52 46 38 44 44 32
94 82 81 84 85 73 61 48 45 38 33 31 33 38 38 34 34 35 33 33 32 32 31 31 35 37 38 38 41 43 44 43 42 41 41 43 46 48 44 40 33 40 37
70 74 70 61 51 45 42 35 33 33 36 36 34 33 33 34 34 35 38 37 39 40 44 48 45 42 39 36 37 37 36 36 36 35 36 36 36 38 38 37 34 28 33
66 50 49 49 40 34 35 38 39 37 33 34 37 37 38 42 44 45 46 51 54 56 62 56 50 46 43 41 38 32 27 25 24 25 24 20 19 22 24 26 31 32 28
49 43 38 38 41 39 43 40 36 36 40 43 42 49 53 52 49 52 58 62 66 73 71 60 54 49 43 38 34 25 20 14 11 11 11 12 13 12 13 14 19 23 24
37 42 48 46 40 40 40 39 41 42 46 48 50 53 59 55 53 57 63 66 69 75 70 61 54 45 39 32 25 18 15 12 9 9 8 8 9 8 7 9 11 12 14
42 50 48 42 40 40 43 42 43 46 49 51 53 55 53 54 56 64 63 67 68 64 55 45 40 34 28 21 17 13 11 11 8 8 7 7 7 6 5 5 7 8 8
49 50 45 43 45 44 43 45 50 50 53 51 52 53 54 58 62 62 68 68 65 56 45 34 27 23 20 16 13 9 7 7 6 6 6 6 5 5 4 5 5 6 6
52 53 47 48 47 50 50 58 59 53 53 53 54 56 58 63 66 67 66 60 49 41 33 28 19 15 12 10 9 6 5 5 5 5 5 5 4 4 4 4 4 5 6
50 46 52 53 54 54 57 58 53 49 52 57 59 62 66 71 70 63 57 47 37 41 38 27 16 12 9 8 7 5 4 4 4 4 4 4 4 4 4 4 4 4 5
48 51 55 56 55 56 61 57 53 55 55 56 61 69 75 68 61 54 51 49 48 34 26 17 10 8 7 6 5 5 5 4 4 4 4 4 4 3 3 3 3 4 5
58 55 56 53 52 55 59 55 56 55 56 64 74 76 67 64 59 62 58 47 32 22 15 9 7 5 5 5 5 5 5 4 4 4 4 4 3 3 3 3 3 3 4
52 50 52 55 62 61 58 58 54 61 70 77 79 68 66 64 66 57 44 30 20 14 9 7 6 6 5 5 5 4 4 4 4 4 4 4 3 3 3 3 3 3 3
54 57 66 71 68 61 60 61 68 80 83 80 73 74 76 73 61 47 29 22 14 9 7 7 7 6 5 4 4 4 3 3 3 3 3 3 4 4 3 3 3 3 3
64 76 75 72 71 70 72 78 83 79 80 76 74 68 70 64 47 30 22 13 9 8 7 6 6 5 4 3 3 3 3 3 2 3 3 3 3 3 3 3 3 3 3
76 79 79 77 79 80 82 85 79 82 79 77 73 68 64 46 31 20 14 10 8 7 7 6 5 4 3 3 3 3 3 3 3 3 3 3 3 3 3 3 3 3 3
85 83 77 79 88 87 84 83 84 89 86 83 75 67 49 33 21 14 11 8 8 8 7 5 3 4 4 4 4 4 4 3 3 3 3 3 3 4 4 4 4 3 3
76 75 85 81 86 77 85 87 92 92 92 80 61 46 35 23 17 12 9 8 8 7 6 4 4 4 4 4 4 4 5 4 3 4 3 4 4 4 3 3 3 3 2
78 85 91 90 90 99 91 91 92 93 75 56 47 35 24 18 13 10 8 7 7 6 5 5 5 5 4 4 4 4 4 4 4 4 3 4 4 4 3 3 2 2 2
89 96 88 86 95 97 94 93 87 71 57 52 36 27 19 14 10 7 6 7 6 4 5 6 6 6 5 4 4 4 4 4 5 4 3 3 3 3 3 3 3 3 3
100 92 95 93 92 96 91 86 74 60 49 38 32 23 16 10 7 6 6 6 4 4 6 6 6 5 5 4 4 4 5 5 4 4 3 3 3 4 5 4 4 3 3
97 100 92 89 93 95 90 79 54 44 40 34 26 16 10 7 6 5 6 5 4 5 6 6 6 5 5 5 5 4 4 4 4 4 3 3 4 4 4 3 3 3 2

GFSMA_250_rhum_030.txt.gz
RH
100 100 100 100 98 100 100 100 100 100 97 91 95 88 77 73 66 76 73 66 43 32 29 30 28 27 29 32 33 34 34 35 35 34 34 34 32 31 28 26 24 24 23
100 100 100 100 100 100 96 89 100 99 93 90 87 76 69 67 65 63 48 35 32 34 30 30 34 35 37 37 38 39 39 40 37 35 34 34 33 31 31 31 31 30 30
100 100 100 100 100 100 100 90 100 90 86 70 67 57 53 48 40 35 31 32 36 33 33 33 35 35 36 38 38 40 42 41 42 44 44 46 48 44 44 46 46 45 42
100 100 100 98 100 99 100 94 92 83 69 55 47 43 42 36 32 33 33 32 34 32 34 36 38 39 39 38 37 40 44 48 51 55 58 59 61 60 57 51 47 51 52
100 100 100 98 90 88 79 90 84 68 50 36 36 38 36 34 35 37 36 34 36 38 40 42 43 41 42 43 44 47 50 54 56 59 65 69 70 68 67 63 58 52 46
98 88 93 92 77 72 69 71 59 52 46 37 37 38 32 35 37 36 35 40 42 46 46 42 44 45 46 47 48 53 56 57 60 67 71 70 66 62 59 58 57 56 53
98 88 97 89 71 63 54 51 50 44 38 34 30 29 33 34 35 38 43 46 46 44 43 45 48 49 47 52 57 57 59 66 71 68 66 68 66 58 52 48 45 44 43
82 87 73 72 58 42 46 43 40 39 34 28 30 37 34 36 45 48 47 45 42 42 45 50 52 53 55 57 54 60 60 62 63 66 66 58 48 38 31 26 23 26 31
88 80 65 51 42 39 45 42 43 45 38 35 38 41 43 47 46 47 50 49 47 47 46 48 51 52 54 57 60 60 69 71 67 57 48 40 31 23 19 17 15 15 15
62 55 50 46 49 43 43 52 52 49 42 47 49 48 52 53 54 52 46 49 53 50 50 50 49 51 56 58 61 64 67 53 45 39 30 21 16 13 10 8 7 7 8
51 49 60 66 60 53 55 60 58 59 54 46 50 56 59 53 57 55 52 46 43 50 52 52 56 56 59 65 66 60 43 38 30 24 18 13 9 6 5 5 5 4 5
59 77 65 62 53 52 54 62 55 45 45 52 54 49 47 54 55 53 52 54 56 53 51 54 55 62 68 65 51 42 29 24 18 12 9 7 6 4 4 4 4 4 3
85 88 57 60 46 52 57 48 54 66 54 54 51 53 58 57 56 58 57 55 53 54 56 65 66 63 56 42 31 27 21 16 11 7 6 5 5 4 4 4 4 4 3
100 98 67 68 83 98 84 86 71 60 60 56 61 62 62 65 56 60 58 51 66 70 63 60 51 50 43 32 27 21 14 9 6 5 4 4 4 4 4 4 4 3 4
76 100 100 100 100 100 96 79 74 68 61 63 63 69 64 58 62 63 56 63 66 61 63 53 45 36 30 21 18 13 8 6 4 4 4 4 4 3 3 2 2 2 3
100 96 100 100 100 81 72 68 62 61 68 70 68 67 60 69 68 62 70 70 61 62 58 50 48 35 22 17 12 7 5 4 4 4 4 3 2 2 3 2 2 2 2
100 100 100 96 90 82 86 74 71 78 74 77 77 74 69 71 68 74 73 68 68 61 57 58 40 24 20 15 8 5 4 3 4 4 3 3 3 3 3 3 2 2 2
100 100 94 86 84 93 92 91 87 88 80 77 73 69 69 73 72 72 74 72 66 62 60 48 30 20 15 9 6 4 3 3 3 3 3 4 4 3 3 3 3 2 2
91 80 74 72 79 96 84 82 87 89 95 96 89 79 85 78 75 81 74 73 67 66 53 38 24 18 11 7 5 4 3 3 3 4 4 4 4 3 3 3 3 3 2
72 63 76 87 98 90 92 98 94 93 93 89 82 86 83 83 89 78 74 75 72 63 41 26 20 15 9 6 4 4 4 4 4 5 4 4 3 3 3 3 3 3 3
67 89 96 95 94 91 100 95 94 85 72 75 84 84 80 89 82 79 80 73 66 50 30 22 17 10 7 4 4 4 4 4 4 5 4 4 5 4 3 3 4 4 3
95 99 100 98 100 100 100 94 80 77 83 87 86 89 92 88 87 82 72 67 57 35 26 17 12 8 6 4 4 5 5 4 5 4 4 4 5 4 3 3 4 4 3
100 100 99 100 100 99 92 83 85 84 90 90 92 94 90 92 85 73 66 57 40 30 21 10 10 6 5 5 5 5 5 5 4 4 4 4 5 4 4 4 4 4 4
93 98 100 100 96 87 83 79 79 89 94 96 96 94 94 89 77 68 52 42 32 22 12 10 8 5 5 6 6 5 5 5 4 4 5 5 4 4 4 3 4 3 3
97 100 98 91 85 82 75 77 86 92 100 100 89 98 89 75 64 56 40 32 22 12 7 8 6 6 6 6 5 5 5 5 4 4 5 5 4 4 4 4 3 3 3
92 92 87 84 80 79 90 92 97 100 95 90 97 90 82 71 45 36 30 23 13 7 6 6 5 6 6 6 5 5 5 5 4 4 4 5 5 3 5 5 3 2 3

GFSMA_250_rhum_033.txt.gz
RH
100 100 100 100 100 100 100 100 100 100 100 97 100 77 87 90 72 67 53 39 32 34 33 32 35 33 29 29 28 28 30 31 31 32 35 35 34 34 35 36 36 36 35
100 100 100 100 100 100 100 100 100 100 100 76 60 78 71 63 55 48 42 37 35 34 33 34 34 31 32 33 35 36 37 37 37 36 37 38 38 37 38 38 38 37 36
100 100 100 100 100 100 100 100 100 100 100 100 97 77 56 50 46 43 40 38 38 36 35 33 32 32 36 37 38 40 40 40 41 42 42 41 42 43 44 46 46 46 44
100 100 100 100 100 100 100 100 97 100 89 80 70 60 53 48 46 42 39 36 35 36 36 34 34 36 37 36 37 38 38 40 45 47 50 52 54 58 59 62 65 62 61
100 100 100 100 100 100 100 96 91 83 83 75 59 45 46 44 39 44 37 40 44 39 37 43 42 43 42 40 41 44 46 49 49 48 50 54 59 62 64 64 68 70 68
99 100 100 99 100 100 96 95 86 84 74 61 49 44 40 41 47 35 38 43 42 41 44 43 43 46 50 49 46 48 47 46 44 47 52 57 63 65 66 70 74 74 74
100 100 100 82 100 100 91 76 75 66 53 47 44 44 40 42 41 47 42 42 44 47 49 49 49 50 48 46 46 49 47 43 52 56 56 62 68 70 72 74 74 73 74
99 99 99 98 91 87 79 72 58 51 45 44 44 38 34 28 26 47 48 48 50 50 49 48 48 50 47 46 45 42 43 56 57 57 60 60 61 61 58 54 50 44 39
89 86 79 74 74 68 66 60 53 51 56 57 50 38 37 39 33 31 35 52 49 50 49 44 46 45 47 47 48 46 52 55 55 61 61 66 67 58 48 38 31 25 21
62 68 62 62 56 49 54 57 59 66 58 44 41 41 41 40 45 47 45 48 47 50 50 50 49 49 43 44 49 52 59 58 60 58 57 52 45 35 28 21 14 11 10
68 60 54 49 51 73 70 73 64 46 44 41 32 32 38 53 61 62 51 45 41 40 46 49 53 55 50 48 51 56 58 55 51 45 34 28 24 18 12 9 7 6 5
54 62 54 49 67 59 50 77 70 47 48 37 41 41 52 55 59 53 50 56 62 58 53 52 57 53 47 55 51 50 47 44 35 27 21 20 14 10 7 5 4 3 3
79 74 78 90 77 76 84 70 61 79 74 67 69 86 74 60 64 59 59 68 67 62 64 68 62 50 53 52 50 50 46 39 29 24 19 13 8 6 4 3 3 3 3
88 100 100 100 100 71 64 99 100 100 94 87 75 65 59 62 72 76 71 80 71 72 68 66 51 48 48 49 52 47 38 28 23 20 14 9 6 3 3 3 3 3 3
100 85 73 70 86 100 100 100 100 100 94 81 77 67 68 86 84 86 83 80 72 64 66 60 55 52 49 48 44 41 30 24 21 13 9 5 3 3 2 2 2 2 2
100 100 88 92 99 100 100 100 100 98 90 80 81 73 97 97 96 91 82 71 70 66 66 71 64 56 54 47 46 35 26 20 14 9 6 4 3 2 2 2 2 3 3
100 100 100 100 100 100 100 99 93 89 77 81 80 93 99 95 82 80 86 73 71 73 67 75 59 55 48 43 31 26 24 16 9 6 4 3 3 3 3 3 3 3 3
100 100 100 100 100 100 91 93 85 78 79 84 96 85 94 90 93 91 76 74 80 69 71 61 64 54 47 33 24 25 18 11 7 4 4 4 4 3 3 3 3 3 3
100 100 99 93 96 87 79 78 87 84 84 86 78 87 75 78 75 64 72 76 77 75 62 56 50 44 32 27 24 19 12 8 5 4 5 5 4 4 3 3 3 3 3
97 88 84 81 78 83 84 88 90 98 99 89 88 88 92 82 81 88 77 82 71 62 59 53 44 30 28 25 19 12 9 6 4 5 6 4 4 5 4 3 3 3 3
82 84 91 91 89 91 90 99 99 100 100 100 100 93 89 92 95 86 83 70 67 63 53 43 30 24 26 22 11 8 6 4 5 5 6 4 5 5 4 3 3 4 4
100 100 95 85 96 95 99 100 100 100 100 92 94 93 94 93 83 71 69 70 68 62 58 49 31 28 24 15 9 7 5 5 6 5 6 4 5 4 4 4 4 4 4
90 79 96 99 99 100 100 99 99 97 94 95 88 84 83 75 69 68 68 70 77 64 52 39 35 32 15 10 7 5 4 5 6 5 5 4 4 4 4 5 4 4 4
99 100 100 100 100 97 96 96 85 82 84 84 78 73 70 71 78 75 67 62 49 49 53 44 32 18 10 6 5 5 5 6 5 5 5 4 4 4 4 5 4 4 4
100 100 100 96 92 95 87 82 83 86 82 76 82 81 82 80 79 74 61 53 50 49 35 30 16 10 6 5 5 6 5 6 6 5 5 4 4 5 4 5 4 4 4
95 99 100 100 92 87 84 73 75 83 91 92 94 93 86 78 68 63 57 50 46 36 20 11 7 6 5 5 6 6 5 5 5 5 4 4 4 5 4 5 5 4 4

GFSMA_250_rhum_039.txt.gz
RH
100 100 100 100 100 100 100 100 97 100 100 100 96 92 92 94 92 100 91 96 100 98 75 79 66 66 50 41 35 33 32 28 26 25 24 26 29 30 30 30 31 34 34
100 100 100 100 100 100 100 100 100 100 100 100 98 100 100 100 100 100 100 96 86 77 88 82 68 58 45 39 37 36 32 29 28 27 27 31 34 37 38 38 38 37 34
100 100 100 91 100 100 100 100 100 100 100 100 100 82 100 100 100 98 80 99 86 93 75 70 56 49 45 40 37 35 33 31 29 30 33 35 40 42 44 43 42 39 39
100 99 99 96 100 100 100 100 100 99 92 100 100 100 100 99 97 98 91 93 83 73 62 53 51 47 44 38 31 33 34 34 32 34 40 42 43 43 41 41 42 41 42
100 94 77 71 81 81 97 100 100 100 100 100 100 100 100 100 73 68 89 79 67 57 53 45 44 41 37 32 36 41 47 47 39 39 40 40 39 36 37 38 40 45 49
100 100 100 100 100 98 100 100 100 100 100 100 100 100 100 90 93 81 67 58 55 47 45 42 37 33 32 37 51 57 53 47 43 39 37 36 34 33 37 39 41 46 47
100 100 75 86 85 92 100 100 100 100 100 100 100 99 93 87 74 62 55 44 44 38 35 32 38 40 48 58 67 60 54 44 40 37 37 35 33 36 39 42 46 48 55
100 100 100 100 100 100 100 100 100 100 100 99 98 95 85 74 64 49 44 42 42 38 39 53 56 52 59 60 56 50 42 44 39 37 34 35 39 41 45 50 53 57 58
100 100 98 100 100 100 100 95 88 79 87 85 76 66 52 50 50 43 37 40 42 51 56 56 48 58 64 52 46 42 44 39 37 37 40 44 49 50 52 50 49 50 50
62 82 87 84 79 73 94 79 87 76 75 75 68 55 43 38 38 34 36 36 43 44 49 51 60 63 58 52 52 51 46 43 45 48 50 50 48 48 47 43 39 35 30
92 100 100 86 85 76 76 85 85 76 65 51 50 44 47 43 46 47 58 52 50 59 56 63 55 56 58 55 54 49 47 54 52 51 48 48 46 43 38 33 29 24 21
68 65 71 72 67 54 52 56 67 58 48 49 48 60 66 81 80 67 58 66 96 81 82 62 61 59 55 52 50 54 55 55 51 49 48 46 43 33 26 22 20 19 18
60 75 91 79 74 64 73 73 71 62 62 73 95 98 99 82 59 63 80 99 100 90 79 80 71 68 58 49 43 44 49 48 55 52 50 40 36 28 22 20 19 17 14
64 99 96 97 98 100 87 76 72 76 92 94 95 82 80 74 100 100 100 83 72 88 86 74 64 59 55 48 50 53 49 56 53 55 47 39 35 28 21 19 17 13 8
84 98 100 100 100 100 95 85 91 96 100 97 90 90 95 100 100 94 99 94 90 84 68 77 72 61 56 56 62 57 60 54 58 50 38 32 26 23 20 17 12 8 4
70 100 96 100 100 100 100 98 99 100 100 100 100 100 100 100 99 100 92 82 72 69 70 63 75 75 72 70 65 60 56 57 55 50 40 30 25 19 17 12 9 5 3
100 100 100 100 100 100 100 100 100 100 100 100 100 100 95 92 88 80 76 80 85 71 69 78 74 72 70 69 65 64 58 57 56 55 46 31 22 16 12 9 6 4 3
90 100 100 100 100 100 100 100 100 100 100 100 100 95 93 90 92 83 92 86 78 75 68 60 68 74 78 70 69 63 54 51 49 53 44 26 17 10 9 6 4 3 3
100 100 100 100 99 78 88 87 94 100 100 100 100 92 89 80 91 100 93 79 74 67 64 62 73 83 72 73 61 62 53 48 39 36 29 17 10 7 7 5 4 4 3
100 96 89 77 68 82 71 61 59 67 83 79 74 73 88 98 93 88 80 73 68 68 73 71 68 66 82 82 70 65 48 38 26 20 17 10 7 6 5 4 4 4 4
58 57 52 52 52 45 43 46 54 64 80 86 91 91 88 88 81 74 75 74 76 76 66 68 73 75 81 81 75 66 49 29 19 14 10 7 5 5 5 4 4 4 3
29 32 34 36 37 46 62 70 77 78 79 87 84 84 80 76 76 78 89 87 76 72 72 66 81 90 91 76 65 53 36 18 12 9 6 5 5 5 5 4 3 3 3
48 49 49 51 56 60 61 68 75 82 78 82 87 82 75 82 82 89 93 85 79 77 81 91 92 90 74 65 49 34 20 12 8 7 4 4 5 5 4 3 3 3 3
62 56 57 60 67 80 88 88 88 85 85 73 73 74 84 94 90 89 84 83 91 96 99 100 90 73 60 48 33 18 11 7 6 5 4 4 5 4 3 3 3 3 3
92 92 97 96 90 88 92 95 90 74 73 83 92 92 93 86 85 84 80 88 94 94 91 82 66 54 41 28 18 10 8 6 4 4 4 4 4 4 3 3 3 3 3
92 85 78 76 87 94 97 86 84 78 88 98 88 90 87 89 92 85 83 75 70 75 71 60 49 32 21 14 10 7 5 4 4 4 3 3 4 4 4 3 3 3 3

GFSMA_250_rhum_042.txt.gz
RH
57 59 80 76 99 96 88 92 100 100 100 100 100 100 96 96 100 94 100 100 100 100 100 100 78 92 67 69 64 62 47 44 44 45 44 37 33 29 27 23 22 21 22
57 56 75 90 76 95 98 92 84 100 100 100 91 100 100 89 98 100 100 100 100 100 100 96 100 72 70 69 55 51 52 52 42 40 36 32 31 29 27 27 29 32 33
64 73 87 64 72 96 100 100 100 100 100 100 100 100 100 100 100 100 100 100 100 100 91 100 91 80 70 58 58 46 43 42 36 36 34 36 36 33 32 35 37 39 40
95 97 94 92 84 96 100 95 94 83 100 99 100 100 100 100 100 100 94 98 100 100 98 91 86 78 60 50 47 44 42 37 37 36 41 41 37 34 33 35 37 38 40
81 99 100 100 100 100 88 94 69 67 60 92 91 92 100 98 87 100 100 100 98 99 93 85 76 60 54 50 42 38 30 35 39 42 39 37 34 34 35 35 36 36 37
91 89 95 100 100 86 83 65 65 71 87 82 99 100 100 100 100 100 93 92 93 82 80 65 55 53 47 44 39 34 38 39 36 34 32 28 29 34 36 36 36 36 38
58 56 100 99 100 80 81 100 100 100 100 100 100 100 100 100 92 84 86 78 82 72 56 54 44 39 40 48 43 42 48 46 38 37 33 28 30 36 38 36 37 42 44
61 50 77 100 100 100 100 100 100 100 100 100 100 97 91 91 79 76 71 65 63 57 46 44 44 55 56 55 52 46 49 52 41 42 34 39 39 41 42 44 46 51 51
56 96 100 99 100 100 100 100 95 96 100 95 79 70 76 86 74 65 53 49 48 54 52 56 62 62 59 55 52 54 49 48 45 46 45 46 46 46 51 53 51 50 45
58 66 69 72 67 89 74 57 75 82 81 79 73 62 52 53 50 60 54 44 46 56 57 62 58 51 59 83 66 64 62 63 57 54 54 50 50 50 53 53 51 46 41
100 100 100 100 100 97 82 86 76 59 65 62 54 45 40 50 46 40 54 67 80 74 66 66 56 65 81 83 79 71 74 61 63 60 63 62 54 51 49 52 45 39 38
85 91 84 78 69 57 45 44 44 60 73 61 50 53 60 65 60 65 73 90 76 65 73 75 82 76 77 71 74 69 60 68 65 60 56 52 50 49 48 45 40 34 33
79 75 67 53 48 68 92 75 68 67 73 52 73 82 79 84 82 83 89 77 78 84 98 98 99 89 89 81 60 58 59 60 52 54 54 55 54 51 41 37 31 28 24
46 54 62 83 94 100 100 85 41 49 57 76 91 100 100 100 100 100 100 100 100 100 100 100 98 99 74 69 66 64 57 50 52 59 57 54 50 45 38 32 23 18 17
100 90 75 88 100 100 98 65 77 98 93 84 86 100 100 99 100 100 100 99 93 93 100 100 84 79 88 83 73 54 57 57 65 65 62 56 55 48 33 21 15 15 11
90 100 100 100 100 100 100 100 100 86 90 96 100 100 100 100 100 99 99 97 98 94 93 79 98 92 81 66 58 64 66 67 66 60 57 57 56 50 34 22 12 12 7
100 100 100 100 100 100 99 73 100 100 100 100 100 100 100 100 100 100 100 83 78 64 71 95 96 80 67 68 78 76 70 68 62 63 64 69 65 56 37 21 8 8 6
100 100 100 100 100 100 100 100 100 100 100 100 100 99 89 89 85 63 61 64 79 84 90 83 79 87 90 88 83 81 71 62 67 74 71 68 51 38 25 14 8 7 5
100 100 100 100 100 100 94 100 100 100 100 100 98 72 60 47 48 64 73 77 88 79 75 83 85 95 96 92 81 66 63 70 77 76 62 45 22 13 12 9 6 5 4
93 100 100 100 100 89 100 100 100 100 92 74 65 48 49 72 77 74 94 86 74 82 85 88 86 84 82 76 73 74 79 87 85 71 49 32 18 11 9 6 5 5 4
100 100 100 100 100 100 100 86 61 51 46 46 58 70 71 77 97 89 77 80 80 87 87 77 79 78 90 86 79 88 86 84 70 54 34 21 12 8 6 5 4 5 3
95 80 68 73 89 50 45 56 60 57 57 59 71 75 88 96 85 80 84 78 88 87 79 79 84 88 90 85 90 85 76 56 42 42 22 12 8 6 5 5 4 4 3
65 44 48 60 60 65 78 79 78 73 69 74 78 79 85 87 86 88 77 81 79 72 76 82 88 90 88 91 65 61 49 32 24 18 10 6 6 5 5 4 3 3 3
38 38 38 38 42 47 52 58 66 72 72 76 77 84 80 83 82 80 80 93 91 90 86 93 92 100 91 60 56 43 34 21 14 9 7 4 5 4 4 4 3 3 3
47 45 42 44 54 57 56 56 63 69 76 85 75 75 81 80 78 77 76 84 95 99 98 100 98 89 77 66 48 34 24 12 7 7 6 4 4 4 3 3 3 3 3
60 59 56 62 53 52 57 63 78 78 69 67 78 86 84 78 77 76 90 89 94 83 95 95 96 92 69 62 56 29 14 8 6 5 5 4 3 3 3 3 3 3 3